sat.trackr.live / text

‹ back to catalog

STARLINK-2428

NORAD 48099 · 2021-027H

PAYLOAD ACTIVE UNKNOWN

§ Identity

Operator
Country
US
Launch date
2021-04-07
Launch site
AFETR
Launch vehicle
Mass (kg)
RCS (m²)

Purposes: comms

External: N2YO · Heavens-Above · Gunter

§ Orbital elements

Epoch: 2026-09-09T16:13:12.955296Z

Period
94.01 min
Inclination
53.1600°
Eccentricity
0.0001110
Mean motion
15.31722247 rev/d
Perigee alt
469.9 km
Apogee alt
471.4 km
Semi-major
6,848.8 km
B*
1.0395e-4
RAAN
31.5716°
Arg perigee
75.7361°
Mean anomaly
284.3764°
Rev number
30,066

§ Raw data

STARLINK-24281 48099U 21027H   26252.67584439  .00002864  00000+0  10395-3 0  99952 48099  53.1600  31.5716 0001110  75.7361 284.3764 15.31722247300665

JSON: /api/v1/satellites/48099 · /tle

For live sub-satellite position, see the globe view (requires WebGL).

§ Visibility from observer

Set your observer location to see the next 7 days of passes ≥ 10°. The values pass through the URL so the page stays shareable.

No JS? Fill the form by hand. The geolocation button needs JavaScript.